Regional Weather Roundup
Issued by NWS Portland, ME

Home | Current Version | Previous Version | Text Only | Print | Product List | Glossary On
Versions: 1 2 3 4 5 6 7 8 9 10 11 12 13 14 15 16 17 18 19 20 21 22 23 24 25 26 27 28 29 30 31 32 33 34 35 36 37 38 39 40 41 42 43 44 45 46 47 48 49 50
000
ASUS41 KGYX 290910
RWRGYX
WEATHER ROUNDUP FOR MAINE AND NEW HAMPSHIRE
NATIONAL WEATHER SERVICE GRAY ME
500 AM EDT FRI APR 29 2016

MEZ002-005-006-010-012-015-018-020-021-024-026-027-029-291000-
MAINE

CITY           SKY/WX    TMP DP  RH WIND       PRES   REMARKS
PORTLAND       MOCLDY    34  16  47 N8        30.19R
SANFORD        PTCLDY    34  16  47 N5        30.18S
BAR HARBOR     CLEAR     26  17  68 CALM      30.21S
WISCASSET      CLEAR     28  20  71 CALM      30.21R
ROCKLAND       CLEAR     32  19  58 NE7       30.20R
FRYEBURG       CLEAR     25  18  74 CALM      30.19R
LEWISTONAUBURN CLEAR     28  14  54 CALM      30.18S
AUGUSTA        CLEAR     29  13  51 N6        30.19S
WATERVILLE     CLEAR     27  15  61 N5        30.17S
BANGOR         PTCLDY    25  14  63 CALM      30.21S
GREENVILLE       N/A     22  10  60 CALM      30.11S
MILLINOCKET    CLEAR     20  14  77 CALM      30.20S
HOULTON        CLEAR     17  11  77 CALM      30.15F
PRESQUE ISLE   CLEAR     17  14  88 CALM      30.17S
FRENCHVILLE    CLEAR     22   8  55 NW6       30.12S
CARIBOU        PTCLDY    21  10  62 SW3       30.14S
$$

NHZ002-005-008-009-011-012-014-291000-
NEW HAMPSHIRE

CITY           SKY/WX    TMP DP  RH WIND       PRES   REMARKS
PORTSMOUTH     CLOUDY    38  23  54 N7        30.15R
ROCHESTER      CLOUDY    36  15  42 N5        30.16R
NASHUA         MOCLDY    39  34  82 NE6       30.15R
MANCHESTER     MOCLDY    40  25  55 NE9       30.14R
CONCORD        CLOUDY    39  16  39 E12       30.15S
LACONIA        PTCLDY    36  14  41 E10       30.17R
PLYMOUTH       FAIR      27  25  94 CALM      30.17R
BERLIN         CLEAR     19  14  81 CALM      30.15S
WHITEFIELD     CLEAR     28  14  55 NW3       30.13S
JAFFREY        CLOUDY    38  31  76 VRB3      30.12R
KEENE          PTCLDY    41  30  65 NE7       30.13S
LEBANON        PTCLDY    28  20  71 CALM      30.15R
MT WASHINGTON  PTCLDY    19   3  49 W29         N/A  WCI   1
$$

VTZ005-007-008-291000-
VERMONT

CITY           SKY/WX    TMP DP  RH WIND       PRES   REMARKS
ST JOHNSBURY     N/A     25  18  74 MISG      30.15R
MONTPELIER     FAIR      24  16  71 CALM      30.17S
BURLINGTON     FAIR      29  20  69 NE3       30.15S
$$

MAZ007-012-024-CTZ003-RIZ002-NYZ038-NYZ072-291000-
SOUTHERN NEW ENGLAND AND NY

CITY           SKY/WX    TMP DP  RH WIND       PRES   REMARKS
BOSTON         CLOUDY    44  36  73 SE5       30.14R
WORCESTER      PTCLDY    40  33  76 NE6       30.10R
NANTUCKET      CLOUDY    44  34  67 E6        30.13R
PROVIDENCE     CLOUDY    45  33  63 E3        30.13R
HARTFORD       CLOUDY    44  36  73 SE5       30.10R
ALBANY         CLOUDY    38  19  46 NE7       30.10S
NEW YORK CITY  CLOUDY    50  34  54 E8        30.06R
$$

ANZ081-ANZ082-ANZ150-NHZ014-MEZ023>029-291000-
COASTAL MARINE OBSERVATIONS

STATION/POSITION TIME  TEMP    WIND        PRES    WAVE
                       AIR SEA DIR/SP/G            HT/PER
                 (UTC) (F)     (DEG/KT/KT) (MB)    (FT/S)
MOUNT DESERT ROC 0900   37      30/ 14/ 16 1022.5R
MATINICUS ROCK   0800   38      60/ 20/ 22 1021.3R
ISLE OF SHOALS   0800   42      40/ 17/ 19 1020.1R
CASHES LEDGE BUO 0850   42 44   70/  8/ 14 1020.8R   2/ 9
GEORGES BANK BUO 0750   42 44              1019.3    4/ 8
$$

.............KEY..............
   WCI - WIND CHILL
   TC  - TEMPERATURE IN CELSIUS
   VSB - VISIBILITY IN MILES
   HX  - HEAT INDEX
   FAIR- INDICATES FEW OR NO CLOUDS BELOW 12,000 FT, WITH NO
         SIGNIFICANT WEATHER AND/OR OBSTRUCTIONS TO VISIBILITY.





USA.gov is the U.S. government's official web portal to all federal, state and local government web resources and services.